Search flights

Alicante Airport, Alicante (LEAL)

Meteorología aeropuerto y NOTAMs

METAR for:LEAL (Alicante Arpt, VC, ES)
Text:LEAL 242100Z 25004KT CAVOK 27/19 Q1014 NOSIG
Conditions at:2100 UTC 24 Jul 2024
Temperature: 27.0°C ( 81°F)
Dewpoint: 19.0°C ( 66°F) [RH = 62%]
Pressure (altimeter):29.94 inches Hg (1014.0 mb)
Winds:from the WSW (250 degrees) at 5 MPH (4 knots; 2.1 m/s)
Visibility:6 or more sm (10+ km)
Ceiling:ceiling and visibility are OK
Clouds:unknown
TAF for:LEAL (Alicante Arpt, VC, ES) issued at 1700 UTC 24 Jul 2024
Text:TAF LEAL 241700Z 2418/2518 13009KT CAVOK TX33/2512Z TN23/2505Z
Forecast period:1800 to 1900 UTC 24 July 2024
Forecast type:FROM: standard forecast or significant change
Winds:from the SE (130 degrees) at 10 MPH (9 knots; 4.6 m/s)
Visibility:6 or more sm (10+ km)
Clouds:missing
Temperature:MAX 33°C at 1200 UTC 25 Jul 2024
Temperature:MIN 23°C at 0500 UTC 25 Jul 2024
Text:BECMG 2419/2421 VRB03KT
Forecast period:1900 UTC 24 July 2024 to 0700 UTC 25 July 2024
Forecast type:BECOMING: Conditions expected to become as follows by 2100 UTC 24 July 2024
Winds:variable direction winds at 3 MPH (3 knots; 1.5 m/s)
Visibility:6 or more sm (10+ km)
Clouds:missing
Text:BECMG 2507/2509 08009KT
Forecast period:0700 to 1800 UTC 25 July 2024
Forecast type:BECOMING: Conditions expected to become as follows by 0900 UTC 25 July 2024
Winds:from the E (80 degrees) at 10 MPH (9 knots; 4.6 m/s)
Visibility:6 or more sm (10+ km)
Clouds:missing

Salidas y llegadas actuales

En este momento no hay salidas ni llegadas a este aeropuerto

Historial de salidas (últimos 12 meses)

Nº vuelo. Destino Aeronave Fecha
FNX310 LEPA FNX_320_CF... 2024-07-21 11:53:23
FNX403 LEIB PMDG 737-8... 2024-07-10 15:55:16
FNX1022 LEMD FNX_320_IA... 2024-07-07 09:37:21
FNX407 LEZL PMDG 737-8... 2024-07-01 16:33:20
FNX406 EHAM FNX_320_CF... 2024-06-21 14:21:47
FNX213 LEBL FNX_320_IA... 2024-06-20 17:49:25
FNX406 LEMD FNX_320_CF... 2024-06-18 14:53:30
FNX408 LEGR ProSimA322... 2024-06-16 16:18:22
FNX407 LEST PMDG 737-8... 2024-06-16 15:38:52
FNX406 LEMG Airbus A32... 2024-06-13 19:11:34
FNXPARTN14 LEGR PMDG 737-8... 2024-06-09 07:34:13
FNX205 LEMD FNX_320_CF... 2024-05-27 15:55:42
FNX213 LEMD Fenix A320... 2024-05-21 21:07:35
FNX407 LEZL PMDG 737-8... 2024-05-15 18:38:35
FNX310 LEPA Cessna Cit... 2024-05-13 22:42:06
FNX400 LEBB Airbus A32... 2024-05-02 17:42:22
FNX213 LEMD Fenix A320... 2024-05-02 22:37:19
FNX310 LEBL Cessna Cit... 2024-04-29 23:13:13
FNX207 LEPA PMDG 737-8... 2024-04-26 18:16:00
FNX310 LEMH Cessna Lon... 2024-04-24 22:54:13
FNXPARTN14 LEGR Black Squa... 2024-04-21 08:41:30
FNX207 LEVT PMDG 737-8... 2024-04-18 07:17:25
FNX213 LEZL Fenix A320... 2024-04-17 16:04:24
FNX205 LICJ Fenix A320... 2024-03-31 19:46:22
FNX310 LEST Cessna Cit... 2024-03-27 23:16:16
FNX213 LEZL Fenix A320... 2024-03-27 23:22:17
FNXPARTN14 LEGR PMDG 737-8... 2024-03-24 15:47:12
FNXTVE17 LEAM Blackwing... 2024-03-21 14:55:55
FNX409 LPMA ToLissA320... 2024-03-10 16:19:36
FNX209 LPMA 737NG Seri... 2024-03-10 15:51:58
FNX102 LPMA PMDG 737-8... 2024-03-10 16:07:00
FNX101 LPMA PMDG 737-8... 2024-03-10 15:59:32
FNX304 LEPA Fenix A320... 2024-03-05 20:37:29
FNX209 KATL 747-400 2024-03-05 02:00:12
FNX205 LEGR PMDG 737-8... 2024-03-03 12:01:41
FNX207 LEVT PMDG 737-8... 2024-02-28 18:04:46
FNX207 LEZL PMDG 737-8... 2024-02-11 09:48:50
FNX207 LEMG PMDG 737-8... 2024-02-08 08:04:18
FNX1128 LEBL Airbus A32... 2024-02-08 11:40:55
FNX207 DAAG PMDG 737-8... 2024-01-30 08:48:48
FNX400 LEBB PMDG 737-8... 2024-01-28 08:37:51
FNXPARTN14 LEGR PMDG 737-8... 2024-01-24 10:45:13
FNX207 LFMN PMDG 737-8... 2024-01-18 08:15:26
FNX302 GCTS PMDG 737-8... 2024-01-09 16:09:12
FNX203 LEAB TBM 930 Fe... 2024-01-05 15:14:47
FNX207 LEIB PMDG 737-8... 2023-12-20 09:04:08
FNX207 LEMG PMDG 737-8... 2023-11-30 08:35:29
FNX207 LEZL PMDG 737-8... 2023-11-28 14:45:07
FNX207 LERI Cessna Sky... 2023-11-14 10:14:59

Historial de llegadas (últimos 12 meses)

Nº vuelo. Origen Aeronave Fecha
FNXKGO10 LEVT A310-300 W... 2024-07-23 17:06:50
FNX403 LEMG PMDG 737-8... 2024-07-10 11:51:32
FNX1127 LEBL PMDG 737-8... 2024-07-06 17:00:50
FNX406 LEPA LONGITUDE_... 2024-06-21 13:13:26
FNX406 LEPA Fenix A320... 2024-06-17 18:21:18
FNX408 LEPA ProSimA322... 2024-06-16 00:01:19
FNXPARTN13 LEXJ PMDG 737-8... 2024-06-09 06:34:40
FNX310 LEBL Cessna Cit... 2024-05-29 23:17:46
FNX205 LIRF FNX_320_CF... 2024-05-27 15:42:39
FNX213 LEMD Fenix A320... 2024-05-18 12:50:26
FNX400 LEBL Airbus A32... 2024-05-14 22:42:04
FNX310 LEBL Cessna Cit... 2024-05-13 22:27:36
FNX213 LEMD Fenix A320... 2024-05-08 22:29:25
FNX407 LEZL PMDG 737-8... 2024-05-07 16:02:13
FNX400 LEPA Airbus A32... 2024-05-02 17:10:19
FNX213 LEBL Fenix A320... 2024-05-02 18:17:05
FNX105 LEMD Airbus A32... 2024-05-02 07:13:40
FNX207 LEZL PMDG 737-8... 2024-04-25 16:12:12
FNXPARTN13 LEXJ HJET HA420... 2024-04-20 10:33:23
FNX213 LEMD Fenix A320... 2024-04-16 22:40:12
FNX310 LEBL PMDG 737-8... 2024-04-10 23:13:18
FNX213 LEMD Fenix A320... 2024-03-25 18:59:16
FNXPARTN13 LEXJ PMDG 737-8... 2024-03-24 13:36:15
FNXTVE16 LEIB Blackwing... 2024-03-18 15:53:01
FNX102 LEPA PMDG 737-8... 2024-03-10 14:17:10
FNX101 LEPA PMDG 737-8... 2024-03-10 14:20:30
FNX208 LESO FenixA320... 2024-03-09 00:27:35
FNX1021 LEMD Fenix A320... 2024-03-04 21:50:48
FNX207 LEBB PMDG 737-8... 2024-02-28 17:49:45
FNX205 LEXJ PMDG 737-8... 2024-02-28 21:16:21
FNX406 LEIB Cessna Sky... 2024-02-23 09:28:19
FNX302 LEVX PMDG 737-8... 2024-02-09 19:09:18
FNX207 LEZL PMDG 737-8... 2024-02-09 18:29:57
FNX207 LPFR PMDG 737-8... 2024-02-07 09:27:25
FNX1127 LEBL Airbus A32... 2024-02-07 22:20:48
FNX207 LEGR PMDG 737-8... 2024-01-29 09:24:45
FNX400 GMMX PMDG 737-8... 2024-01-28 00:27:40
FNXPARTN13 LEXJ PMDG 737-8... 2024-01-23 20:27:05
FNX207 LEGR TBM 930 Fe... 2024-01-17 19:40:42
FNX302 LIRA PMDG 737-8... 2024-01-09 15:21:14
FNX207 LPFR PMDG 737-8... 2024-01-08 19:03:14
FNX203 LEMD TBM 930 Fe... 2024-01-05 13:14:04
FNX207 LEPA PMDG 737-8... 2023-12-29 18:00:12
FNX207 GCXO PMDG 737-8... 2023-12-19 11:06:51
FNX207 LEZL PMDG 737-8... 2023-11-29 13:41:49
FNX101 LEZL PMDG 737-8... 2023-11-12 11:58:49
FNX101 LEPA PMDG 737-8... 2023-11-08 21:40:59
FNX207 LEAM Cessna Sky... 2023-09-03 19:24:32
FNX207 LEPA Cessna Sky... 2023-07-31 22:23:28

Información de pista (Elevación del aeropuerto: 93ft)

Pista 10 Longitud 9,814ft Anchura 145ft Elevación 93ft Superficie Bituminous Rumbo 100
Pista 28 Longitud 9,814ft Anchura 145ft Elevación 93ft Superficie Bituminous Rumbo 280

Frecuencias del aeropuerto

Tipo APP/DEP Frecuencia 118.800 Mhz
Tipo APP/DEP Frecuencia 119.075 Mhz
Tipo APP/DEP Frecuencia 120.400 Mhz
Tipo ATIS Frecuencia 120.080 Mhz
Tipo Tower Frecuencia 118.155 Mhz
Tipo Tower Frecuencia 119.855 Mhz
Tipo Tower Frecuencia 122.100 Mhz
Tipo Tower Frecuencia 125.180 Mhz
Tipo Tower Frecuencia 130.655 Mhz
Tipo Clearance Frecuencia 119.855 Mhz
Tipo Ground Frecuencia 130.655 Mhz

Radioayudas del aeropuerto

Tipo VOR-DME Identif. ALT Frecuencia 113800 Khz
Tipo VOR-DME Identif. ATE Frecuencia 114650 Khz